Flag for China Weather past 2 weeks in Changsha, Hunan, China

Now
88 °F

Scattered clouds.


Feels Like: 94 °F
Forecast: 72 / 86 °F
Wind: 1 mph from North

Location: Changsha

Current Time: May 26, 2015 at 6:09:56 PM

Latest Report: May 26, 2015 at 5:00 PM


Visibility: 4 mi

Pressure: 29.62 "Hg

Humidity: 59%

Dew point: 72 °F

Location of ChangshaLocation

Historic Weather in Changsha — Graph

°F

Changsha temperature yesterday

Maximum temperature yesterday: 86 °F (at 4:00 PM)
Minimum temperature yesterday: 70 °F (at 3:00 AM)
Average temperature yesterday: 77 °F

Past Weeks' High & Low Weather Summary

 TemperatureHumidityPressure
High90 °F (May 14, 4:00 PM)100% (May 15, 6:00 PM)30.07 "Hg (May 15, 6:00 PM)
Low55 °F (May 12, 2:00 AM)39% (May 12, 3:00 PM)29.59 "Hg (May 18, 2:00 AM)
Average74 °F78%29.76 "Hg
* Reported May 11 5:00 PM — May 26 5:00 PM, Changsha, Weather by CustomWeather, © 2015

Note: Actual official high and low records may vary slightly from our data, if they occured in-between our weather recording intervals... More about our weather records

Advertising

Changsha weather history for previous 24 hours

 ConditionsComfort  
Time TempWeatherWind HumidityBarometerVisibility
5:00 PM
Tue, May 26
88 °FScattered clouds.1 mph59%29.62 "Hg4 mi
4:00 PM88 °FScattered clouds.1 mph59%29.65 "Hg5 mi
3:00 PM88 °FClear.3 mph59%29.65 "Hg4 mi
2:00 PM86 °FPassing clouds.3 mph62%29.68 "Hg4 mi
1:00 PM86 °FHaze.3 mph59%29.71 "Hg3 mi
12:00 PM84 °FHaze.3 mph62%29.74 "Hg2 mi
11:00 AM82 °FHaze.1 mph66%29.74 "Hg2 mi
10:00 AM79 °FFog.1 mph74%29.77 "Hg1 mi
9:00 AM77 °FFog.3 mph79%29.77 "Hg1 mi
8:00 AM73 °FFog.1 mph89%29.74 "Hg1 mi
7:00 AM73 °FFog.1 mph89%29.74 "Hg1 mi
6:00 AM73 °FFog.3 mph89%29.74 "Hg1 mi
5:00 AM72 °FFog.1 mph88%29.71 "Hg1 mi
4:00 AM72 °FFog.6 mph88%29.71 "Hg1 mi
3:00 AM73 °FFog.1 mph89%29.71 "Hg1 mi
2:00 AM73 °FFog.1 mph83%29.74 "Hg2 mi
1:00 AM75 °FFog.3 mph83%29.74 "Hg2 mi
12:00 AM73 °FFog.3 mph89%29.74 "Hg2 mi
11:00 PM
Mon, May 25
75 °FFog.6 mph83%29.77 "Hg2 mi
10:00 PM77 °FFog.3 mph79%29.77 "Hg2 mi
9:00 PM79 °FFog.3 mph74%29.74 "Hg2 mi
8:00 PM79 °FFog.3 mph79%29.71 "Hg2 mi
7:00 PM81 °FFog.3 mph70%29.68 "Hg2 mi
6:00 PM82 °FScattered clouds.3 mph66%29.68 "Hg2 mi
Weather by CustomWeather, © 2015

See weather overviewHow to use our weather pages